Weather History for Naples, Italy

Change the Weather History Date:

Wednesday, November 6, 2013

  Actual Average Record
Temperature  
Mean Temperature 62 °F -  
Max Temperature 71 °F 62 °F 79 °F (2014)
Min Temperature 53 °F 45 °F 44 °F (2006)
Degree Days  
Heating Degree Days 3    
Growing Degree Days 12 (Base 50)    
Moisture  
Dew Point 52 °F    
Average Humidity 75    
Maximum Humidity 94    
Minimum Humidity 46    
Precipitation  
Precipitation 0.00 in 0.20 in - ()
Sea Level Pressure  
Sea Level Pressure 29.71 in    
Wind  
Wind Speed 4 mph ()    
Max Wind Speed 10 mph    
Max Gust Speed 17 mph    
Visibility 6.2 miles    
Events      
Averages and records for this station are not official NWS values.
T = Trace of Precipitation, MM = Missing Value Source: Averaged Metar Reports

Daily Weather History Graph

Daily Weather History Graph

Search for Another Location

Airport:

Trip Planner

Search our weather history database for the weather conditions in past years. The results will help you decide how hot, cold, wet, or windy it might be!

Date:

Astronomy

Nov. 06, 2013 Rise Set
Actual Time 6:39 AM CET 4:53 PM CET
Civil Twilight 6:10 AM CET 5:21 PM CET
Nautical Twilight 5:37 AM CET 5:54 PM CET
Astronomical Twilight 5:05 AM CET 6:26 PM CET
Moon 9:38 AM CET (11/6) 7:38 PM CET (11/6)
Length of Visible Light 11h 11m
Length of Day
10h 13m
Waxing Crescent, 11% of the Moon is Illuminated
Nov 6
Waxing Crescent
Nov 10
First Quarter
Nov 17
Full
Nov 25
Last Quarter
Dec 3
New

Hourly Weather History & Observations

Time (CET) Temp. Dew Point Humidity Pressure Visibility Wind Dir Wind Speed Gust Speed Precip Events Conditions
12:20 AM 57.2 °F 53.6 °F 88% 29.53 in 6.2 mi Variable 1.2 mph - N/A   Partly Cloudy
12:50 AM 53.6 °F 51.8 °F 94% 29.53 in - NW 2.3 mph - N/A   Clear
1:20 AM 55.4 °F 53.6 °F 94% 29.53 in - NNW 4.6 mph - N/A   Clear
1:50 AM 57.2 °F 53.6 °F 88% 29.53 in - NNW 5.8 mph - N/A   Clear
2:20 AM 57.2 °F 53.6 °F 88% 29.53 in - North 5.8 mph - N/A   Clear
2:50 AM 55.4 °F 51.8 °F 88% 29.53 in - NNW 4.6 mph - N/A   Clear
3:20 AM 57.2 °F 53.6 °F 88% 29.53 in - NW 5.8 mph - N/A   Clear
3:50 AM 55.4 °F 51.8 °F 88% 29.56 in - NW 4.6 mph - N/A   Clear
4:20 AM 55.4 °F 51.8 °F 88% 29.56 in - NW 4.6 mph - N/A   Clear
4:50 AM 55.4 °F 51.8 °F 88% 29.59 in - NW 4.6 mph - N/A   Clear
5:20 AM 53.6 °F 50.0 °F 88% 29.59 in - NW 4.6 mph - N/A   Clear
5:50 AM 53.6 °F 51.8 °F 94% 29.59 in - North 3.5 mph - N/A   Clear
6:20 AM 53.6 °F 50.0 °F 88% 29.62 in - NNW 3.5 mph - N/A   Clear
6:50 AM 53.6 °F 51.8 °F 94% 29.62 in - NW 3.5 mph - N/A   Clear
7:20 AM 57.2 °F 53.6 °F 88% 29.65 in - Variable 1.2 mph - N/A   Clear
7:50 AM 57.2 °F 51.8 °F 82% 29.65 in - NNW 4.6 mph - N/A   Clear
8:20 AM 57.2 °F 51.8 °F 82% 29.68 in - NNW 5.8 mph - N/A   Clear
8:50 AM 59.0 °F 53.6 °F 82% 29.68 in - North 4.6 mph - N/A   Clear
9:20 AM 60.8 °F 53.6 °F 77% 29.71 in - North 3.5 mph - N/A   Clear
9:50 AM 62.6 °F 53.6 °F 72% 29.71 in - North 3.5 mph - N/A   Clear
10:20 AM 64.4 °F 53.6 °F 68% 29.71 in - North 4.6 mph - N/A   Clear
10:50 AM 66.2 °F 50.0 °F 56% 29.71 in - NNW 4.6 mph - N/A   Clear
11:20 AM 68.0 °F 51.8 °F 56% 29.71 in - NW 3.5 mph - N/A   Clear
11:50 AM 69.8 °F 51.8 °F 53% 29.71 in - NNW 4.6 mph - N/A   Clear
12:20 PM 68.0 °F 48.2 °F 49% 29.71 in - North 5.8 mph 17.3 mph N/A   Clear
12:50 PM 71.6 °F 51.8 °F 50% 29.74 in - Variable 3.5 mph - N/A   Clear
1:20 PM 69.8 °F 50.0 °F 49% 29.74 in - Variable 5.8 mph - N/A   Clear
1:50 PM 69.8 °F 50.0 °F 49% 29.74 in - NW 3.5 mph - N/A   Clear
2:20 PM 69.8 °F 50.0 °F 49% 29.74 in - North 3.5 mph - N/A   Clear
2:50 PM 71.6 °F 50.0 °F 46% 29.74 in - NNW 4.6 mph - N/A   Clear
3:20 PM 71.6 °F 50.0 °F 46% 29.77 in - NNW 5.8 mph - N/A   Clear
3:50 PM 69.8 °F 50.0 °F 49% 29.77 in - NW 5.8 mph - N/A   Clear
4:20 PM 66.2 °F 53.6 °F 64% 29.77 in - WNW 10.4 mph - N/A   Clear
4:50 PM 66.2 °F 53.6 °F 64% 29.77 in - NW 8.1 mph - N/A   Clear
5:50 PM 62.6 °F 53.6 °F 72% 29.80 in - East 3.5 mph - N/A   Clear
6:20 PM 62.6 °F 53.6 °F 72% 29.83 in - Variable 1.2 mph - N/A   Clear
6:50 PM 60.8 °F 51.8 °F 72% 29.83 in - Variable 2.3 mph - N/A   Clear
7:20 PM 60.8 °F 53.6 °F 77% 29.83 in - East 2.3 mph - N/A   Clear
7:50 PM 60.8 °F 53.6 °F 77% 29.86 in - NE 3.5 mph - N/A   Clear
8:20 PM 60.8 °F 53.6 °F 77% 29.86 in - ENE 4.6 mph - N/A   Clear
8:50 PM 60.8 °F 53.6 °F 77% 29.86 in - Variable 2.3 mph - N/A   Clear
9:20 PM 59.0 °F 51.8 °F 77% 29.89 in - Variable 2.3 mph - N/A   Clear
9:50 PM 59.0 °F 51.8 °F 77% 29.89 in - NE 3.5 mph - N/A   Clear
10:20 PM 57.2 °F 51.8 °F 82% 29.89 in - Variable 2.3 mph - N/A   Clear
10:50 PM 55.4 °F 50.0 °F 82% 29.89 in - NNW 3.5 mph - N/A   Clear
11:20 PM 55.4 °F 51.8 °F 88% 29.89 in - NW 4.6 mph - N/A   Clear
11:50 PM 55.4 °F 51.8 °F 88% 29.92 in - Variable 2.3 mph - N/A   Clear